| time (UTC) | temp F | wind direction | speed MPH | gust MPH | rain 1hr in | rain 24hr in | rain mn in | humidity % | barometer mb |
| 20260509031605 | 44 | 229 | 1.0 | 2.0 | 0.00 | 0.00 | 0.00 | 49 | 1012.1 |
| 20260509030045 | 44 | 229 | 1.0 | 2.0 | 0.00 | 0.00 | 0.00 | 51 | 1012.1 |
| 20260509024541 | 44 | 229 | 2.0 | 6.0 | 0.00 | 0.00 | 0.00 | 55 | 1012.0 |
| 20260509023040 | 45 | 0 | 0.0 | 0.0 | 0.00 | 0.00 | 0.00 | 48 | 1011.7 |
| 20260509021547 | 45 | 0 | 0.0 | 0.0 | 0.00 | 0.00 | 0.00 | 45 | 1011.5 |
| 20260509020048 | 45 | 0 | 0.0 | 0.0 | 0.00 | 0.00 | 0.00 | 44 | 1011.1 |
| 20260509014544 | 44 | 0 | 0.0 | 0.0 | 0.00 | 0.00 | 0.00 | 44 | 1011.0 |
| 20260509013044 | 44 | 0 | 0.0 | 0.0 | 0.00 | 0.00 | 0.00 | 44 | 1010.8 |
| 20260509011543 | 44 | 0 | 0.0 | 0.0 | 0.00 | 0.00 | 0.00 | 47 | 1010.6 |
| 20260509010049 | 45 | 0 | 0.0 | 0.0 | 0.00 | 0.00 | 0.00 | 44 | 1010.4 |
| 20260509004550 | 46 | 0 | 0.0 | 0.0 | 0.00 | 0.00 | 0.00 | 40 | 1010.2 |
| 20260509003049 | 47 | 0 | 0.0 | 3.0 | 0.00 | 0.00 | 0.00 | 39 | 1009.9 |
| 20260509001545 | 48 | 0 | 2.0 | 5.0 | 0.00 | 0.00 | 0.00 | 38 | 1009.6 |
| 20260509000049 | 49 | 317 | 2.0 | 5.0 | 0.00 | 0.00 | 0.00 | 37 | 1009.6 |
| 20260508234548 | 50 | 340 | 3.0 | 9.0 | 0.00 | 0.00 | 0.00 | 40 | 1009.4 |
| 20260508233055 | 52 | 308 | 3.0 | 9.0 | 0.00 | 0.00 | 0.00 | 33 | 1009.1 |
| 20260508231546 | 52 | 304 | 5.0 | 11.0 | 0.00 | 0.00 | 0.00 | 32 | 1009.0 |
| 20260508230122 | 53 | 281 | 6.0 | 15.0 | 0.00 | 0.00 | 0.00 | 31 | 1008.9 |
| 20260508224549 | 53 | 317 | 8.0 | 17.0 | 0.00 | 0.00 | 0.00 | 32 | 1009.0 |
| 20260508223044 | 54 | 265 | 7.0 | 15.0 | 0.00 | 0.00 | 0.00 | 31 | 1008.8 |
| 20260508221541 | 54 | 247 | 8.0 | 14.0 | 0.00 | 0.00 | 0.00 | 28 | 1008.7 |
| 20260508220109 | 54 | 252 | 8.0 | 17.0 | 0.00 | 0.00 | 0.00 | 30 | 1008.6 |
| 20260508214549 | 53 | 306 | 10.0 | 20.0 | 0.00 | 0.00 | 0.00 | 31 | 1008.6 |
| 20260508213046 | 54 | 298 | 13.0 | 24.0 | 0.00 | 0.00 | 0.00 | 28 | 1008.4 |
| 20260508211547 | 54 | 306 | 11.0 | 21.0 | 0.00 | 0.00 | 0.00 | 30 | 1008.4 |
| 20260508210045 | 54 | 283 | 7.0 | 16.0 | 0.00 | 0.00 | 0.00 | 33 | 1008.2 |
| 20260508204543 | 54 | 313 | 7.0 | 14.0 | 0.00 | 0.00 | 0.00 | 35 | 1008.2 |
| 20260508203048 | 54 | 275 | 11.0 | 20.0 | 0.00 | 0.00 | 0.00 | 31 | 1007.9 |
| 20260508201548 | 53 | 316 | 8.0 | 21.0 | 0.00 | 0.00 | 0.00 | 34 | 1007.9 |
| 20260508200046 | 54 | 277 | 9.0 | 18.0 | 0.00 | 0.00 | 0.00 | 34 | 1007.8 |
| 20260508194542 | 53 | 325 | 8.0 | 21.0 | 0.00 | 0.00 | 0.00 | 34 | 1007.7 |
| 20260508193047 | 54 | 309 | 10.0 | 20.0 | 0.00 | 0.00 | 0.00 | 33 | 1007.5 |
| 20260508191543 | 54 | 284 | 10.0 | 21.0 | 0.00 | 0.00 | 0.00 | 31 | 1007.7 |
| 20260508190103 | 54 | 326 | 6.0 | 19.0 | 0.00 | 0.00 | 0.00 | 35 | 1007.5 |
| 20260508184551 | 56 | 307 | 13.0 | 24.0 | 0.00 | 0.00 | 0.00 | 33 | 1007.4 |
| 20260508183048 | 55 | 266 | 12.0 | 23.0 | 0.00 | 0.00 | 0.00 | 34 | 1007.3 |
| 20260508181605 | 55 | 316 | 13.0 | 22.0 | 0.00 | 0.00 | 0.00 | 31 | 1007.3 |
| 20260508180048 | 54 | 323 | 10.0 | 19.0 | 0.00 | 0.00 | 0.00 | 31 | 1007.3 |
| 20260508174549 | 54 | 254 | 8.0 | 15.0 | 0.00 | 0.00 | 0.00 | 29 | 1007.3 |
| 20260508173046 | 54 | 290 | 7.0 | 20.0 | 0.00 | 0.00 | 0.00 | 28 | 1007.2 |
| 20260508171545 | 54 | 261 | 6.0 | 16.0 | 0.00 | 0.00 | 0.00 | 31 | 1007.2 |
| 20260508170046 | 54 | 5 | 5.0 | 21.0 | 0.00 | 0.00 | 0.00 | 29 | 1007.0 |
| 20260508164541 | 53 | 286 | 9.0 | 16.0 | 0.00 | 0.00 | 0.00 | 33 | 1007.0 |
| 20260508163048 | 53 | 308 | 7.0 | 13.0 | 0.00 | 0.00 | 0.00 | 31 | 1007.3 |
| 20260508161546 | 53 | 344 | 6.0 | 19.0 | 0.00 | 0.00 | 0.00 | 33 | 1007.4 |
| 20260508160047 | 53 | 242 | 9.0 | 17.0 | 0.00 | 0.00 | 0.00 | 31 | 1007.4 |
| 20260508154546 | 52 | 316 | 9.0 | 15.0 | 0.00 | 0.00 | 0.00 | 36 | 1007.6 |
| 20260508153044 | 53 | 254 | 9.0 | 15.0 | 0.00 | 0.00 | 0.00 | 40 | 1007.7 |
| 20260508151540 | 52 | 286 | 7.0 | 17.0 | 0.00 | 0.00 | 0.00 | 37 | 1007.6 |
| 20260508150046 | 53 | 295 | 10.0 | 19.0 | 0.00 | 0.00 | 0.00 | 40 | 1007.8 |
| 20260508144548 | 52 | 282 | 8.0 | 15.0 | 0.00 | 0.00 | 0.00 | 38 | 1007.9 |
| 20260508143051 | 52 | 311 | 11.0 | 20.0 | 0.00 | 0.00 | 0.00 | 35 | 1007.9 |
| 20260508141555 | 52 | 315 | 10.0 | 20.0 | 0.00 | 0.00 | 0.00 | 37 | 1007.9 |
| 20260508140041 | 52 | 254 | 9.0 | 17.0 | 0.00 | 0.00 | 0.00 | 40 | 1008.1 |
| 20260508134558 | 51 | 256 | 8.0 | 16.0 | 0.00 | 0.00 | 0.00 | 40 | 1008.2 |
| 20260508133045 | 51 | 279 | 9.0 | 14.0 | 0.00 | 0.00 | 0.00 | 43 | 1008.4 |
| 20260508131546 | 50 | 288 | 7.0 | 14.0 | 0.00 | 0.00 | 0.00 | 45 | 1008.5 |
| 20260508130046 | 50 | 273 | 7.0 | 12.0 | 0.00 | 0.00 | 0.00 | 47 | 1008.5 |
| 20260508124542 | 49 | 269 | 7.0 | 13.0 | 0.00 | 0.00 | 0.00 | 47 | 1008.6 |
| 20260508123058 | 48 | 259 | 4.0 | 11.0 | 0.00 | 0.00 | 0.00 | 50 | 1008.6 |
| 20260508121546 | 47 | 238 | 6.0 | 10.0 | 0.00 | 0.00 | 0.00 | 51 | 1008.6 |
| 20260508120050 | 46 | 285 | 4.0 | 8.0 | 0.00 | 0.00 | 0.00 | 52 | 1008.5 |
| 20260508114549 | 45 | 246 | 4.0 | 8.0 | 0.00 | 0.00 | 0.00 | 55 | 1008.5 |
| 20260508113045 | 44 | 286 | 5.0 | 9.0 | 0.00 | 0.00 | 0.00 | 54 | 1008.5 |
| 20260508111548 | 43 | 269 | 4.0 | 7.0 | 0.00 | 0.00 | 0.00 | 57 | 1008.4 |
| 20260508110048 | 41 | 248 | 2.0 | 4.0 | 0.00 | 0.00 | 0.00 | 61 | 1008.3 |
| 20260508104546 | 39 | 275 | 2.0 | 4.0 | 0.00 | 0.00 | 0.00 | 64 | 1008.2 |
| 20260508103047 | 38 | 271 | 3.0 | 6.0 | 0.00 | 0.00 | 0.00 | 65 | 1008.0 |
| 20260508101541 | 37 | 269 | 3.0 | 6.0 | 0.00 | 0.00 | 0.00 | 65 | 1007.9 |
| 20260508100040 | 38 | 264 | 1.0 | 4.0 | 0.00 | 0.00 | 0.00 | 63 | 1007.9 |
| 20260508094608 | 39 | 248 | 3.0 | 8.0 | 0.00 | 0.00 | 0.00 | 59 | 1007.7 |
| 20260508093046 | 39 | 284 | 2.0 | 7.0 | 0.00 | 0.00 | 0.00 | 57 | 1007.5 |
| 20260508091546 | 39 | 275 | 3.0 | 6.0 | 0.00 | 0.00 | 0.00 | 58 | 1007.4 |
| 20260508090049 | 41 | 275 | 2.0 | 7.0 | 0.00 | 0.00 | 0.00 | 55 | 1007.3 |
| 20260508084542 | 40 | 274 | 3.0 | 7.0 | 0.00 | 0.00 | 0.00 | 54 | 1007.0 |
| 20260508083048 | 40 | 309 | 3.0 | 6.0 | 0.00 | 0.00 | 0.00 | 55 | 1006.8 |
| 20260508081609 | 41 | 309 | 3.0 | 8.0 | 0.00 | 0.00 | 0.00 | 54 | 1006.7 |
| 20260508080041 | 41 | 300 | 4.0 | 8.0 | 0.00 | 0.00 | 0.00 | 53 | 1006.6 |
| 20260508074541 | 41 | 284 | 4.0 | 8.0 | 0.00 | 0.00 | 0.00 | 54 | 1006.6 |
| 20260508073047 | 40 | 312 | 2.0 | 4.0 | 0.00 | 0.00 | 0.00 | 57 | 1006.5 |
| 20260508071549 | 41 | 304 | 2.0 | 6.0 | 0.00 | 0.00 | 0.00 | 57 | 1006.5 |
| 20260508070048 | 40 | 297 | 3.0 | 5.0 | 0.00 | 0.00 | 0.00 | 58 | 1006.5 |
| 20260508064542 | 41 | 302 | 2.0 | 4.0 | 0.00 | 0.00 | 0.00 | 58 | 1006.5 |
| 20260508063055 | 42 | 296 | 3.0 | 7.0 | 0.00 | 0.00 | 0.00 | 52 | 1006.7 |
| 20260508061552 | 43 | 301 | 3.0 | 7.0 | 0.00 | 0.00 | 0.00 | 51 | 1006.8 |
| 20260508060053 | 43 | 311 | 3.0 | 8.0 | 0.00 | 0.00 | 0.00 | 50 | 1007.0 |
| 20260508054545 | 42 | 307 | 4.0 | 8.0 | 0.00 | 0.00 | 0.00 | 53 | 1007.1 |
| 20260508053044 | 43 | 323 | 1.0 | 4.0 | 0.00 | 0.00 | 0.00 | 48 | 1007.2 |
| 20260508051542 | 44 | 326 | 2.0 | 8.0 | 0.00 | 0.00 | 0.00 | 46 | 1007.3 |
| 20260508050048 | 44 | 314 | 3.0 | 9.0 | 0.00 | 0.00 | 0.00 | 46 | 1007.3 |
| 20260508044547 | 44 | 300 | 3.0 | 6.0 | 0.00 | 0.00 | 0.00 | 47 | 1007.4 |
| 20260508043051 | 44 | 319 | 4.0 | 8.0 | 0.00 | 0.00 | 0.00 | 47 | 1007.4 |
| 20260508041541 | 45 | 329 | 5.0 | 9.0 | 0.00 | 0.00 | 0.00 | 49 | 1007.3 |
| 20260508040050 | 46 | 309 | 3.0 | 7.0 | 0.00 | 0.00 | 0.00 | 47 | 1007.3 |
| 20260508034548 | 46 | 318 | 4.0 | 9.0 | 0.00 | 0.05 | 0.00 | 47 | 1007.5 |
| 20260508033049 | 46 | 304 | 6.0 | 9.0 | 0.00 | 0.05 | 0.00 | 47 | 1007.3 |